EW9998 Weather Reports


time (UTC)temp
F
wind
direction
speed
knots
gust
knots
rain 1hr
in
rain 24hr
in
rain mn
in
humidity
%
barometer
mb
20260506201551 59 254 0.0 0.9 0.00 0.38 0.38 89 1002.0
20260506200129 59 360 0.0 3.5 0.00 0.38 0.38 89 1002.1
20260506194550 59 360 0.0 3.5 0.00 0.38 0.38 90 1002.1
20260506193047 59 360 0.0 0.0 0.01 0.38 0.38 90 1002.4
20260506191547 59 360 0.0 0.9 0.02 0.38 0.38 90 1002.4
20260506190045 59 244 0.0 7.0 0.02 0.38 0.38 91 1002.5
20260506184548 59 216 0.0 1.7 0.02 0.38 0.38 91 1002.5
20260506183043 59 203 0.0 0.0 0.02 0.37 0.37 92 1002.6
20260506181530 59 360 0.0 2.6 0.03 0.36 0.36 92 1002.8
20260506180034 59 271 0.0 5.2 0.05 0.36 0.36 91 1002.9
20260506174505 59 360 0.0 6.1 0.06 0.36 0.36 90 1002.9
20260506173005 59 360 0.0 3.5 0.07 0.35 0.35 90 1002.8
20260506171555 59 168 0.9 5.2 0.07 0.33 0.33 89 1002.8
20260506170047 59 251 0.0 2.6 0.06 0.31 0.31 89 1002.8
20260506164537 59 225 0.0 4.3 0.07 0.30 0.30 89 1002.8
20260506163044 59 208 0.0 4.3 0.06 0.28 0.28 87 1003.1
20260506161544 59 173 3.5 7.8 0.06 0.26 0.26 86 1003.0
20260506160031 59 360 1.7 5.2 0.05 0.24 0.24 86 1003.2
20260506154531 59 214 3.5 7.8 0.06 0.23 0.23 87 1003.2
20260506153028 58 234 2.6 8.7 0.08 0.22 0.22 86 1003.3
20260506151527 58 234 1.7 5.2 0.08 0.20 0.20 89 1003.6
20260506150029 58 220 0.0 3.5 0.09 0.19 0.19 90 1003.8
20260506144514 58 360 0.0 0.9 0.11 0.17 0.17 90 1003.9
20260506143014 58 223 0.9 6.1 0.10 0.14 0.14 90 1004.0
20260506141513 58 219 0.0 0.9 0.10 0.12 0.12 90 1004.3
20260506140012 59 245 1.7 6.1 0.07 0.09 0.09 88 1004.4
20260506134523 59 210 0.9 7.8 0.04 0.06 0.06 87 1004.4
20260506133011 59 237 0.0 4.3 0.02 0.04 0.04 86 1004.3
20260506131509 60 183 0.9 3.5 0.01 0.02 0.02 83 1004.2
20260506130008 60 276 1.7 6.1 0.01 0.02 0.02 81 1004.0
20260506124555 60 360 0.9 5.2 0.01 0.02 0.02 82 1004.1
20260506123055 58 165 0.9 4.3 0.01 0.02 0.02 86 1004.1
20260506121601 58 254 0.0 0.0 0.00 0.01 0.01 87 1004.1
20260506120051 58 254 0.0 0.0 0.00 0.01 0.01 85 1004.5
20260506114554 59 254 0.0 0.0 0.00 0.01 0.01 83 1004.7
20260506113051 60 254 0.0 0.0 0.00 0.01 0.01 79 1004.7
20260506111607 60 254 0.0 1.7 0.00 0.01 0.01 76 1004.5
20260506110050 60 253 0.0 4.3 0.00 0.01 0.01 73 1004.2
20260506104529 61 275 0.0 0.0 0.00 0.01 0.01 72 1004.0
20260506103029 62 274 0.0 3.5 0.00 0.01 0.01 65 1004.1
20260506101508 63 260 0.9 5.2 0.00 0.01 0.01 64 1003.9
20260506100008 62 360 0.9 2.6 0.00 0.01 0.01 63 1003.8
20260506094550 63 219 0.0 3.5 0.00 0.01 0.01 64 1003.8
20260506093053 62 248 0.9 3.5 0.00 0.01 0.01 63 1004.0
20260506091531 62 286 0.9 4.3 0.00 0.01 0.01 63 1003.9
20260506090028 61 208 1.7 7.0 0.00 0.01 0.01 66 1003.9
20260506084507 56 360 0.0 1.7 0.00 0.01 0.01 88 1004.0
20260506083005 54 360 0.0 2.6 0.00 0.01 0.01 92 1004.1
20260506081550 54 360 0.0 0.9 0.00 0.01 0.01 94 1004.3
20260506073026 53 360 0.0 2.6 0.00 0.01 0.01 95 1004.5
20260506071559 53 360 0.0 1.7 0.00 0.01 0.01 95 1004.7
20260506070125 54 15 0.0 0.0 0.00 0.01 0.01 96 1004.7
20260506061542 54 360 0.0 0.0 0.00 0.01 0.01 96 1005.3
20260506044519 54 32 0.0 0.0 0.01 0.01 0.01 94 1005.8
20260506043014 54 32 0.0 0.0 0.01 0.01 0.01 93 1006.0
20260506041616 55 32 0.0 0.0 0.01 0.01 0.01 93 1005.9
20260506040100 56 33 0.0 0.0 0.00 0.00 0.00 92 1005.9
20260506034600 57 32 0.0 1.7 0.00 0.00 0.00 92 1005.8
20260506033056 57 32 0.0 0.0 0.00 0.00 0.00 92 1005.6
20260506031557 58 32 0.0 1.7 0.00 0.00 0.00 92 1005.6
20260506030055 58 30 0.9 1.7 0.00 0.00 0.00 91 1005.6
20260506024600 58 249 0.0 2.6 0.00 0.00 0.00 90 1005.5
20260506023053 59 236 0.0 1.7 0.00 0.00 0.00 89 1005.6
20260506021551 59 211 0.0 1.7 0.00 0.00 0.00 87 1005.5
20260506020105 60 200 0.0 1.7 0.00 0.00 0.00 84 1005.5
20260506014607 60 186 0.0 0.9 0.00 0.00 0.00 84 1005.3
20260506013049 60 186 0.0 0.0 0.00 0.00 0.00 82 1005.1
20260506011612 61 186 0.0 0.0 0.00 0.00 0.00 80 1005.1
20260506010049 62 186 0.0 0.0 0.00 0.00 0.00 77 1005.0
20260506004601 63 186 0.0 1.7 0.00 0.00 0.00 73 1004.9
20260506003029 62 190 0.0 1.7 0.00 0.00 0.00 73 1004.9
20260506001529 63 188 0.0 0.0 0.00 0.00 0.00 73 1004.5
20260506000010 64 189 0.0 0.0 0.00 0.00 0.00 70 1004.3
20260505234524 64 360 0.0 0.0 0.00 0.00 0.00 66 1004.2
20260505233046 65 188 0.0 0.0 0.00 0.00 0.00 65 1004.2
20260505231548 65 190 0.0 0.0 0.00 0.00 0.00 63 1004.0
20260505230049 66 189 0.0 0.9 0.00 0.00 0.00 62 1004.1
20260505224537 65 188 0.0 1.7 0.00 0.00 0.00 62 1004.1
20260505223010 65 360 0.0 1.7 0.00 0.00 0.00 64 1004.1
20260505221508 65 360 0.9 1.7 0.00 0.00 0.00 62 1003.9
20260505220054 66 360 0.0 2.6 0.00 0.00 0.00 61 1004.1
20260505214554 67 360 0.9 3.5 0.00 0.00 0.00 57 1004.1
20260505213054 71 360 2.6 9.6 0.00 0.00 0.00 47 1004.3
20260505211552 76 244 1.7 16.5 0.00 0.00 0.00 32 1002.7
20260505210052 76 150 2.6 8.7 0.00 0.00 0.00 32 1001.9
20260505204554 76 154 3.5 7.0 0.00 0.00 0.00 31 1001.8
20260505203058 76 216 3.5 13.0 0.00 0.00 0.00 32 1001.7